FW4043 Weather Reports


Display with metric or nautical units.
time (UTC)temp
F
wind
direction
speed
MPH
gust
MPH
rain 1hr
in
rain 24hr
in
rain mn
in
humidity
%
barometer
mb
20260506193026 82 176 7.0 12.0 0.00 0.00 0.00 89 1010.8
20260506191540 82 174 10.0 16.0 0.00 0.00 0.00 88 1010.8
20260506190036 82 140 9.0 13.0 0.00 0.00 0.00 89 1011.1
20260506184538 82 198 5.0 10.0 0.00 0.00 0.00 90 1011.3
20260506183057 82 180 7.0 13.0 0.00 0.00 0.00 89 1011.4
20260506181542 82 159 5.0 11.0 0.00 0.00 0.00 90 1011.7
20260506180053 81 148 7.0 10.0 0.00 0.00 0.00 90 1011.9
20260506174550 81 145 5.0 11.0 0.00 0.00 0.00 91 1012.0
20260506173058 80 165 4.0 9.0 0.00 0.00 0.00 92 1012.1
20260506171502 79 150 7.0 10.0 0.00 0.00 0.00 92 1012.2
20260506170114 79 192 5.0 11.0 0.00 0.00 0.00 92 1012.5
20260506164542 79 170 6.0 11.0 0.00 0.00 0.00 92 1012.3
20260506163046 78 130 8.0 11.0 0.00 0.00 0.00 93 1012.1
20260506161542 78 140 6.0 11.0 0.00 0.00 0.00 93 1012.0
20260506160043 78 135 6.0 8.0 0.00 0.00 0.00 93 1012.1
20260506154550 78 125 6.0 9.0 0.00 0.00 0.00 93 1012.0
20260506153050 77 128 7.0 9.0 0.00 0.00 0.00 93 1011.8
20260506151550 77 156 7.0 10.0 0.00 0.00 0.00 93 1011.8
20260506150100 77 150 6.0 10.0 0.00 0.00 0.00 93 1011.5
20260506144607 77 128 7.0 11.0 0.00 0.00 0.00 93 1011.1
20260506144501 77 119 6.0 11.0 0.00 0.00 0.00 93 1011.0
20260506143015 77 136 7.0 9.0 0.00 0.00 0.00 93 1011.0
20260506141510 77 144 6.0 10.0 0.00 0.00 0.00 93 1011.2
20260506140007 77 136 6.0 8.0 0.00 0.00 0.00 93 1011.2
20260506134512 76 119 6.0 9.0 0.00 0.00 0.00 93 1011.3
20260506133012 76 146 5.0 9.0 0.00 0.00 0.00 93 1011.2
20260506131515 76 132 6.0 9.0 0.00 0.00 0.00 93 1011.3
20260506130021 75 137 6.0 9.0 0.00 0.00 0.00 93 1011.2
20260506124525 75 132 6.0 8.0 0.00 0.00 0.00 93 1011.2
20260506123031 75 134 6.0 9.0 0.00 0.00 0.00 93 1011.0
20260506121528 75 142 6.0 9.0 0.00 0.00 0.00 93 1011.0
20260506120041 75 128 7.0 9.0 0.00 0.00 0.00 93 1010.9
20260506114535 75 136 6.0 8.0 0.00 0.00 0.00 93 1010.8
20260506113042 75 132 6.0 8.0 0.00 0.00 0.00 92 1010.6
20260506111545 75 127 5.0 8.0 0.00 0.00 0.00 92 1010.4
20260506110047 75 119 5.0 8.0 0.00 0.00 0.00 92 1010.3
20260506104559 74 126 5.0 7.0 0.00 0.00 0.00 92 1010.3
20260506103114 74 119 4.0 6.0 0.00 0.00 0.00 92 1010.5
20260506103003 74 119 4.0 6.0 0.00 0.00 0.00 92 1010.4
20260506101509 74 121 4.0 6.0 0.00 0.00 0.00 92 1010.3
20260506100010 74 123 3.0 6.0 0.00 0.00 0.00 91 1010.3
20260506094519 74 121 4.0 5.0 0.00 0.00 0.00 91 1010.2
20260506093019 74 121 4.0 5.0 0.00 0.00 0.00 92 1010.0
20260506091523 75 122 4.0 6.0 0.00 0.00 0.00 91 1010.1
20260506090044 75 130 6.0 9.0 0.00 0.00 0.00 92 1010.0
20260506084541 75 132 6.0 8.0 0.00 0.00 0.00 92 1010.1
20260506083037 75 117 6.0 9.0 0.00 0.00 0.00 92 1010.2
20260506081550 75 130 6.0 9.0 0.00 0.00 0.00 91 1010.2
20260506073059 76 132 7.0 9.0 0.00 0.00 0.00 91 1010.7
20260506071556 77 131 7.0 11.0 0.00 0.00 0.00 91 1011.0
20260506061535 77 141 7.0 12.0 0.00 0.00 0.00 90 1011.1
20260506044524 77 143 8.0 11.0 0.00 0.00 0.00 90 1011.0
20260506043036 77 139 7.0 12.0 0.00 0.00 0.00 90 1010.9
20260506041535 77 148 8.0 13.0 0.00 0.00 0.00 90 1010.8
20260506040043 76 143 7.0 11.0 0.00 0.00 0.00 90 1010.8
20260506034551 77 146 6.0 10.0 0.00 0.00 0.00 90 1010.7
20260506033057 77 142 9.0 14.0 0.00 0.00 0.00 90 1010.6
20260506031558 77 150 8.0 11.0 0.00 0.00 0.00 89 1010.5
20260506030004 77 162 7.0 11.0 0.00 0.00 0.00 89 1010.5
20260506024525 77 146 7.0 11.0 0.00 0.00 0.00 89 1010.3
20260506023022 78 151 8.0 13.0 0.00 0.00 0.00 88 1010.2
20260506021532 78 135 8.0 14.0 0.00 0.00 0.00 88 1009.9
20260506020037 78 164 8.0 13.0 0.00 0.00 0.00 88 1009.8
20260506014542 78 151 11.0 14.0 0.00 0.00 0.00 88 1009.6
20260506013054 78 135 8.0 14.0 0.00 0.00 0.00 88 1009.3
20260506011604 78 129 7.0 10.0 0.00 0.00 0.00 87 1009.2
20260506010058 78 139 10.0 14.0 0.00 0.00 0.00 87 1008.9
20260506004508 79 142 11.0 15.0 0.00 0.00 0.00 86 1008.7
20260506003009 79 139 9.0 13.0 0.00 0.00 0.00 86 1008.6
20260506001513 79 148 9.0 19.0 0.00 0.00 0.00 85 1008.6
20260506000017 80 160 10.0 20.0 0.00 0.00 0.00 85 1008.7
20260505234522 80 160 8.0 16.0 0.00 0.00 0.00 85 1008.6
20260505233025 80 153 7.0 15.0 0.00 0.00 0.00 85 1008.5
20260505231533 80 155 9.0 15.0 0.00 0.00 0.00 85 1008.6
20260505230037 80 138 7.0 16.0 0.00 0.00 0.00 85 1008.7
20260505224540 81 154 8.0 15.0 0.00 0.00 0.00 84 1008.8
20260505223050 81 194 10.0 16.0 0.00 0.00 0.00 84 1008.8
20260505221557 81 148 9.0 16.0 0.00 0.00 0.00 84 1008.9
20260505220057 82 180 7.0 16.0 0.00 0.00 0.00 84 1009.0
20260505214621 82 179 7.0 15.0 0.00 0.00 0.00 84 1009.1
20260505214501 82 105 6.0 15.0 0.00 0.00 0.00 84 1009.1
20260505213008 81 184 4.0 14.0 0.00 0.00 0.00 84 1009.4
20260505211509 81 192 6.0 18.0 0.00 0.00 0.00 84 1009.6
20260505210013 81 132 6.0 13.0 0.00 0.00 0.00 84 1009.9
20260505204525 81 165 4.0 11.0 0.00 0.00 0.00 84 1009.9
20260505203023 81 273 4.0 19.0 0.00 0.00 0.00 84 1010.2
20260505201525 82 259 7.0 16.0 0.00 0.00 0.00 85 1010.3
20260505200030 81 137 5.0 16.0 0.00 0.00 0.00 84 1010.3
20260505194531 82 252 1.0 16.0 0.00 0.00 0.00 86 1010.4